Time,TemperatureF,DewpointF,PressureIn,WindDirection,WindDirectionDegrees,WindSpeedMPH,WindSpeedGustMPH,Humidity,HourlyPrecipIn,Conditions,Clouds,dailyrainin,SolarRadiationWatts/m^2,SoftwareType,DateUTC
2013-09-29 00:09:00,46.9,44.7,23.25,SW,225,0.0,0.0,92,0.00,,,0.00,0,Wunderground v.1.15,2013-09-29 04:09:00,
2013-09-29 00:19:00,46.4,44.2,23.25,SW,225,0.0,0.0,92,0.00,,,0.00,0,Wunderground v.1.15,2013-09-29 04:19:00,
2013-09-29 00:30:00,46.9,45.0,23.25,SW,225,0.0,0.0,93,0.00,,,0.00,0,Wunderground v.1.15,2013-09-29 04:30:00,
2013-09-29 00:39:00,47.0,45.1,23.25,SW,225,0.0,0.0,93,0.00,,,0.00,0,Wunderground v.1.15,2013-09-29 04:39:00,
2013-09-29 00:49:00,46.9,45.0,23.25,SW,225,0.0,0.0,93,0.00,,,0.00,0,Wunderground v.1.15,2013-09-29 04:49:00,
2013-09-29 01:09:00,46.0,44.1,23.25,SW,225,0.0,0.0,93,0.00,,,0.00,0,Wunderground v.1.15,2013-09-29 05:09:00,
2013-09-29 01:19:00,45.9,44.0,23.25,SW,225,0.0,0.0,93,0.00,,,0.00,0,Wunderground v.1.15,2013-09-29 05:19:00,
2013-09-29 01:30:00,45.6,43.7,23.25,SW,225,0.0,0.0,93,0.00,,,0.00,0,Wunderground v.1.15,2013-09-29 05:30:00,
2013-09-29 01:39:00,45.3,43.4,23.25,SW,225,0.0,0.0,93,0.00,,,0.00,0,Wunderground v.1.15,2013-09-29 05:39:00,
2013-09-29 01:49:00,45.3,43.4,23.25,SW,225,0.0,0.0,93,0.00,,,0.00,0,Wunderground v.1.15,2013-09-29 05:49:00,
2013-09-29 02:00:00,45.3,43.4,23.25,SW,225,0.0,0.0,93,0.00,,,0.00,0,Wunderground v.1.15,2013-09-29 06:00:00,
2013-09-29 02:09:00,45.1,43.2,23.25,SW,225,0.0,0.0,93,0.00,,,0.00,0,Wunderground v.1.15,2013-09-29 06:09:00,
2013-09-29 02:19:00,45.3,43.4,23.25,SW,225,0.0,0.0,93,0.00,,,0.00,0,Wunderground v.1.15,2013-09-29 06:19:00,
2013-09-29 02:39:00,44.2,42.3,23.25,SW,225,0.0,0.0,93,0.00,,,0.00,0,Wunderground v.1.15,2013-09-29 06:39:00,
2013-09-29 02:49:00,44.0,42.1,23.25,SW,225,0.0,0.0,93,0.00,,,0.00,0,Wunderground v.1.15,2013-09-29 06:49:00,
2013-09-29 03:00:00,43.5,41.6,23.25,SW,225,0.0,0.0,93,0.00,,,0.00,0,Wunderground v.1.15,2013-09-29 07:00:00,
2013-09-29 03:09:00,43.5,41.6,23.25,SW,225,0.0,0.0,93,0.00,,,0.00,0,Wunderground v.1.15,2013-09-29 07:09:00,
2013-09-29 03:19:00,43.4,41.5,23.25,SW,225,0.0,0.0,93,0.00,,,0.00,0,Wunderground v.1.15,2013-09-29 07:19:00,
2013-09-29 03:30:00,43.1,41.2,23.25,SW,225,0.0,0.0,93,0.00,,,0.00,0,Wunderground v.1.15,2013-09-29 07:30:00,
2013-09-29 03:39:00,42.8,40.9,23.25,SW,225,0.0,0.0,93,0.00,,,0.00,0,Wunderground v.1.15,2013-09-29 07:39:00,
2013-09-29 03:49:00,42.7,40.8,23.25,SW,225,0.0,0.0,93,0.00,,,0.00,0,Wunderground v.1.15,2013-09-29 07:49:00,
2013-09-29 04:09:00,43.4,41.8,23.25,SW,225,0.0,0.0,94,0.00,,,0.00,0,Wunderground v.1.15,2013-09-29 08:09:00,
2013-09-29 04:19:00,43.7,42.1,23.25,SW,225,0.0,0.0,94,0.00,,,0.00,0,Wunderground v.1.15,2013-09-29 08:19:00,
2013-09-29 04:30:00,43.7,42.1,23.25,SW,225,0.0,0.0,94,0.00,,,0.00,0,Wunderground v.1.15,2013-09-29 08:30:00,
2013-09-29 04:39:00,43.4,41.5,23.25,SW,225,0.0,0.0,93,0.00,,,0.00,0,Wunderground v.1.15,2013-09-29 08:39:00,
2013-09-29 04:49:00,42.7,40.8,23.25,SW,225,0.0,0.0,93,0.00,,,0.00,0,Wunderground v.1.15,2013-09-29 08:49:00,
2013-09-29 05:00:00,42.1,40.2,23.25,SW,225,0.0,0.0,93,0.00,,,0.00,0,Wunderground v.1.15,2013-09-29 09:00:00,
2013-09-29 05:09:00,41.4,39.5,23.25,SW,225,0.0,0.0,93,0.00,,,0.00,0,Wunderground v.1.15,2013-09-29 09:09:00,
2013-09-29 05:19:00,41.4,39.5,23.25,SW,225,0.0,0.0,93,0.00,,,0.00,0,Wunderground v.1.15,2013-09-29 09:19:00,
2013-09-29 05:30:00,41.4,39.8,23.25,SW,225,0.0,0.0,94,0.00,,,0.00,0,Wunderground v.1.15,2013-09-29 09:30:00,
2013-09-29 05:39:00,41.4,39.8,23.25,SW,225,0.0,0.0,94,0.00,,,0.00,0,Wunderground v.1.15,2013-09-29 09:39:00,
2013-09-29 05:49:00,41.0,39.1,23.25,SW,225,0.0,0.0,93,0.00,,,0.00,0,Wunderground v.1.15,2013-09-29 09:49:00,
2013-09-29 06:09:00,40.5,38.6,23.25,SW,225,0.0,0.0,93,0.00,,,0.00,0,Wunderground v.1.15,2013-09-29 10:09:00,
2013-09-29 06:19:00,40.4,38.5,23.25,SW,225,0.0,0.0,93,0.00,,,0.00,0,Wunderground v.1.15,2013-09-29 10:19:00,
2013-09-29 06:30:00,40.1,38.2,23.25,SW,225,0.0,0.0,93,0.00,,,0.00,0,Wunderground v.1.15,2013-09-29 10:30:00,
2013-09-29 06:39:00,40.0,38.1,23.25,SW,225,0.0,0.0,93,0.00,,,0.00,0,Wunderground v.1.15,2013-09-29 10:39:00,
2013-09-29 06:49:00,40.1,38.5,23.25,SW,225,0.0,0.0,94,0.00,,,0.00,0,Wunderground v.1.15,2013-09-29 10:49:00,
2013-09-29 07:00:00,39.8,37.9,23.25,SW,225,0.0,0.0,93,0.00,,,0.00,7,Wunderground v.1.15,2013-09-29 11:00:00,
2013-09-29 07:09:00,39.8,38.2,23.25,SW,225,0.0,0.0,94,0.00,,,0.01,12,Wunderground v.1.15,2013-09-29 11:09:00,
2013-09-29 07:19:00,40.1,38.5,23.25,SW,225,0.0,0.0,94,0.00,,,0.01,30,Wunderground v.1.15,2013-09-29 11:19:00,
2013-09-29 07:30:00,41.1,39.5,23.25,SW,225,0.0,0.0,94,0.00,,,0.01,63,Wunderground v.1.15,2013-09-29 11:30:00,
2013-09-29 07:39:00,41.7,40.1,23.25,SW,225,0.0,0.0,94,0.00,,,0.01,100,Wunderground v.1.15,2013-09-29 11:39:00,
2013-09-29 07:49:00,42.4,40.8,23.25,SW,225,0.0,0.0,94,0.00,,,0.01,135,Wunderground v.1.15,2013-09-29 11:49:00,
2013-09-29 08:00:00,44.8,43.2,23.25,SW,225,0.0,0.0,94,0.00,,,0.01,162,Wunderground v.1.15,2013-09-29 12:00:00,
2013-09-29 08:09:00,46.1,44.5,23.25,SW,225,0.0,0.0,94,0.00,,,0.01,185,Wunderground v.1.15,2013-09-29 12:09:00,
2013-09-29 08:19:00,47.5,45.9,23.25,SW,225,0.0,0.0,94,0.00,,,0.01,207,Wunderground v.1.15,2013-09-29 12:19:00,
2013-09-29 08:39:00,49.7,47.2,23.25,SW,225,0.0,0.0,91,0.00,,,0.01,258,Wunderground v.1.15,2013-09-29 12:39:00,
2013-09-29 08:49:00,50.4,47.6,23.25,SW,225,0.0,0.0,90,0.00,,,0.01,281,Wunderground v.1.15,2013-09-29 12:49:00,
2013-09-29 09:09:00,53.0,49.5,23.25,SW,225,0.0,0.0,88,0.00,,,0.01,336,Wunderground v.1.15,2013-09-29 13:09:00,
2013-09-29 09:19:00,54.6,49.9,23.25,SW,225,0.0,0.0,84,0.00,,,0.01,362,Wunderground v.1.15,2013-09-29 13:19:00,
2013-09-29 09:30:00,55.9,50.5,23.25,SW,225,0.0,0.0,82,0.00,,,0.01,396,Wunderground v.1.15,2013-09-29 13:30:00,
2013-09-29 09:39:00,56.9,50.8,23.25,SW,225,0.0,0.0,80,0.00,,,0.01,429,Wunderground v.1.15,2013-09-29 13:39:00,
2013-09-29 09:49:00,58.8,51.2,23.25,SW,225,0.0,0.0,76,0.00,,,0.01,464,Wunderground v.1.15,2013-09-29 13:49:00,
2013-09-29 10:09:00,60.8,50.6,23.25,SW,225,1.0,1.0,69,0.00,,,0.01,508,Wunderground v.1.15,2013-09-29 14:09:00,
2013-09-29 10:19:00,61.5,50.4,23.24,SW,225,1.0,5.0,67,0.00,,,0.01,533,Wunderground v.1.15,2013-09-29 14:19:00,
2013-09-29 10:30:00,61.9,50.0,23.24,SW,226,1.0,2.0,65,0.00,,,0.01,554,Wunderground v.1.15,2013-09-29 14:30:00,
2013-09-29 10:39:00,62.6,50.2,23.24,SW,214,2.0,2.0,64,0.00,,,0.01,573,Wunderground v.1.15,2013-09-29 14:39:00,
2013-09-29 10:49:00,63.8,51.0,23.24,SW,223,1.0,1.0,63,0.00,,,0.01,591,Wunderground v.1.15,2013-09-29 14:49:00,
2013-09-29 11:00:00,64.6,50.8,23.24,SW,214,1.0,2.0,61,0.00,,,0.01,606,Wunderground v.1.15,2013-09-29 15:00:00,
2013-09-29 11:09:00,64.7,50.5,23.24,SSW,206,2.0,2.0,60,0.00,,,0.01,621,Wunderground v.1.15,2013-09-29 15:09:00,
2013-09-29 11:19:00,65.5,51.2,23.24,South,182,2.0,2.0,60,0.00,,,0.01,636,Wunderground v.1.15,2013-09-29 15:19:00,
2013-09-29 11:39:00,66.0,51.7,23.24,South,180,2.0,2.0,60,0.00,,,0.01,657,Wunderground v.1.15,2013-09-29 15:39:00,
2013-09-29 11:49:00,67.0,52.2,23.24,South,178,1.0,1.0,59,0.00,,,0.01,666,Wunderground v.1.15,2013-09-29 15:49:00,
2013-09-29 12:00:00,67.3,51.5,23.24,SSW,209,2.0,2.0,57,0.00,,,0.01,677,Wunderground v.1.15,2013-09-29 16:00:00,
2013-09-29 12:09:00,68.3,51.5,23.24,SSW,197,2.0,4.0,55,0.00,,,0.01,686,Wunderground v.1.15,2013-09-29 16:09:00,
2013-09-29 12:19:00,68.8,50.5,23.24,SSW,204,3.0,3.0,52,0.00,,,0.01,691,Wunderground v.1.15,2013-09-29 16:19:00,
2013-09-29 12:39:00,69.3,49.9,23.24,South,186,4.0,5.0,50,0.00,,,0.01,696,Wunderground v.1.15,2013-09-29 16:39:00,
2013-09-29 12:49:00,70.2,50.7,23.24,WSW,242,3.0,7.0,50,0.00,,,0.01,694,Wunderground v.1.15,2013-09-29 16:49:00,
2013-09-29 13:00:00,70.8,50.7,23.24,SW,234,3.0,3.0,49,0.00,,,0.01,524,Wunderground v.1.15,2013-09-29 17:00:00,
2013-09-29 13:09:00,71.5,50.2,23.23,SW,235,3.0,3.0,47,0.00,,,0.01,698,Wunderground v.1.15,2013-09-29 17:09:00,
2013-09-29 13:19:00,71.5,49.0,23.23,South,188,4.0,4.0,45,0.00,,,0.01,689,Wunderground v.1.15,2013-09-29 17:19:00,
2013-09-29 13:39:00,71.9,48.8,23.23,SSW,202,5.0,5.0,44,0.00,,,0.01,675,Wunderground v.1.15,2013-09-29 17:39:00,
2013-09-29 13:49:00,72.6,48.8,23.23,SW,216,4.0,5.0,43,0.00,,,0.01,664,Wunderground v.1.15,2013-09-29 17:49:00,
2013-09-29 14:19:00,73.1,48.0,23.23,SW,226,4.0,4.0,41,0.00,,,0.01,624,Wunderground v.1.15,2013-09-29 18:19:00,
2013-09-29 14:30:00,73.1,49.3,23.23,SSW,212,4.0,4.0,43,0.00,,,0.01,608,Wunderground v.1.15,2013-09-29 18:30:00,
2013-09-29 14:39:00,73.4,48.9,23.22,South,187,3.0,3.0,42,0.00,,,0.01,596,Wunderground v.1.15,2013-09-29 18:39:00,
2013-09-29 14:49:00,73.4,48.9,23.22,WSW,242,3.0,3.0,42,0.00,,,0.01,580,Wunderground v.1.15,2013-09-29 18:49:00,
2013-09-29 15:09:00,73.8,48.6,23.22,WNW,286,3.0,3.0,41,0.00,,,0.01,534,Wunderground v.1.15,2013-09-29 19:09:00,
2013-09-29 15:19:00,74.1,49.5,23.22,WSW,238,2.0,2.0,42,0.00,,,0.01,517,Wunderground v.1.15,2013-09-29 19:19:00,
2013-09-29 15:39:00,74.1,48.2,23.22,SSW,211,3.0,4.0,40,0.00,,,0.01,469,Wunderground v.1.15,2013-09-29 19:39:00,
2013-09-29 15:49:00,74.1,48.9,23.22,SSW,200,2.0,2.0,41,0.00,,,0.01,443,Wunderground v.1.15,2013-09-29 19:49:00,
2013-09-29 16:09:00,74.5,49.2,23.22,SSW,211,1.0,1.0,41,0.00,,,0.01,390,Wunderground v.1.15,2013-09-29 20:09:00,
2013-09-29 16:19:00,74.5,48.6,23.22,SSW,213,1.0,1.0,40,0.00,,,0.01,362,Wunderground v.1.15,2013-09-29 20:19:00,
2013-09-29 16:39:00,74.3,49.1,23.22,SSW,209,2.0,5.0,41,0.00,,,0.01,308,Wunderground v.1.15,2013-09-29 20:39:00,
2013-09-29 16:49:00,74.1,48.9,23.22,West,281,2.0,2.0,41,0.00,,,0.01,279,Wunderground v.1.15,2013-09-29 20:49:00,
2013-09-29 17:00:00,74.1,48.9,23.22,West,281,0.0,0.0,41,0.00,,,0.01,246,Wunderground v.1.15,2013-09-29 21:00:00,
2013-09-29 17:09:00,74.5,48.6,23.21,West,281,0.0,1.0,40,0.00,,,0.01,218,Wunderground v.1.15,2013-09-29 21:09:00,
2013-09-29 17:19:00,73.9,48.1,23.21,WNW,282,1.0,1.0,40,0.00,,,0.01,193,Wunderground v.1.15,2013-09-29 21:19:00,
2013-09-29 17:39:00,73.6,48.4,23.21,West,261,0.0,0.0,41,0.00,,,0.01,137,Wunderground v.1.15,2013-09-29 21:39:00,
2013-09-29 17:49:00,73.4,48.9,23.21,West,261,0.0,0.0,42,0.00,,,0.01,113,Wunderground v.1.15,2013-09-29 21:49:00,
2013-09-29 18:00:00,72.7,51.3,23.21,West,261,0.0,0.0,47,0.00,,,0.01,53,Wunderground v.1.15,2013-09-29 22:00:00,
2013-09-29 18:09:00,70.0,53.1,23.21,West,261,0.0,0.0,55,0.00,,,0.01,19,Wunderground v.1.15,2013-09-29 22:09:00,
2013-09-29 18:19:00,67.8,53.4,23.21,West,261,0.0,0.0,60,0.00,,,0.01,14,Wunderground v.1.15,2013-09-29 22:19:00,
2013-09-29 18:30:00,66.3,52.9,23.21,West,261,0.0,0.0,62,0.00,,,0.01,5,Wunderground v.1.15,2013-09-29 22:30:00,
2013-09-29 18:39:00,64.9,52.8,23.21,West,261,0.0,0.0,65,0.00,,,0.01,0,Wunderground v.1.15,2013-09-29 22:39:00,
2013-09-29 18:49:00,63.4,52.7,23.21,West,261,0.0,0.0,68,0.00,,,0.01,0,Wunderground v.1.15,2013-09-29 22:49:00,
2013-09-29 19:00:00,61.7,52.2,23.21,West,261,0.0,0.0,71,0.00,,,0.01,0,Wunderground v.1.15,2013-09-29 23:00:00,
2013-09-29 19:09:00,60.4,52.1,23.21,West,261,0.0,0.0,74,0.00,,,0.01,0,Wunderground v.1.15,2013-09-29 23:09:00,
2013-09-29 19:19:00,59.4,52.2,23.21,West,261,0.0,0.0,77,0.00,,,0.01,0,Wunderground v.1.15,2013-09-29 23:19:00,
2013-09-29 19:39:00,57.4,51.3,23.21,West,261,0.0,0.0,80,0.00,,,0.01,0,Wunderground v.1.15,2013-09-29 23:39:00,
2013-09-29 19:49:00,56.8,51.0,23.21,West,261,0.0,0.0,81,0.00,,,0.01,0,Wunderground v.1.15,2013-09-29 23:49:00,
2013-09-29 20:09:00,55.8,50.4,23.21,West,261,0.0,0.0,82,0.00,,,0.01,0,Wunderground v.1.15,2013-09-30 00:09:00,
2013-09-29 20:19:00,55.2,50.1,23.21,West,261,0.0,0.0,83,0.00,,,0.01,0,Wunderground v.1.15,2013-09-30 00:19:00,
2013-09-29 20:39:00,54.1,49.4,23.21,West,261,0.0,0.0,84,0.00,,,0.01,0,Wunderground v.1.15,2013-09-30 00:39:00,
2013-09-29 20:49:00,53.8,49.4,23.21,West,261,0.0,0.0,85,0.00,,,0.01,0,Wunderground v.1.15,2013-09-30 00:49:00,
2013-09-29 21:09:00,53.1,48.7,23.21,West,261,0.0,0.0,85,0.00,,,0.01,0,Wunderground v.1.15,2013-09-30 01:09:00,
2013-09-29 21:19:00,52.7,48.3,23.21,West,261,0.0,0.0,85,0.00,,,0.01,0,Wunderground v.1.15,2013-09-30 01:19:00,
2013-09-29 21:39:00,52.2,48.1,23.21,West,261,0.0,0.0,86,0.00,,,0.01,0,Wunderground v.1.15,2013-09-30 01:39:00,
2013-09-29 21:49:00,51.9,47.8,23.21,West,261,0.0,0.0,86,0.00,,,0.01,0,Wunderground v.1.15,2013-09-30 01:49:00,
2013-09-29 22:09:00,51.5,47.8,23.21,West,261,0.0,0.0,87,0.00,,,0.01,0,Wunderground v.1.15,2013-09-30 02:09:00,
2013-09-29 22:19:00,50.7,47.0,23.21,West,261,0.0,0.0,87,0.00,,,0.01,0,Wunderground v.1.15,2013-09-30 02:19:00,
2013-09-29 22:30:00,50.3,46.9,23.21,West,261,0.0,0.0,88,0.00,,,0.01,0,Wunderground v.1.15,2013-09-30 02:30:00,
2013-09-29 22:39:00,50.1,47.3,23.21,West,261,0.0,0.0,90,0.00,,,0.01,0,Wunderground v.1.15,2013-09-30 02:39:00,
2013-09-29 22:49:00,50.1,47.3,23.21,West,261,0.0,0.0,90,0.00,,,0.01,0,Wunderground v.1.15,2013-09-30 02:49:00,
2013-09-29 23:00:00,50.6,48.1,23.21,West,261,0.0,0.0,91,0.00,,,0.01,0,Wunderground v.1.15,2013-09-30 03:00:00,
2013-09-29 23:09:00,50.6,48.1,23.21,West,261,0.0,0.0,91,0.00,,,0.01,0,Wunderground v.1.15,2013-09-30 03:09:00,
2013-09-29 23:19:00,49.8,47.0,23.21,West,261,0.0,0.0,90,0.00,,,0.01,0,Wunderground v.1.15,2013-09-30 03:19:00,
2013-09-29 23:40:00,48.4,45.6,23.21,West,261,0.0,0.0,90,0.00,,,0.01,0,Wunderground v.1.15,2013-09-30 03:40:00,
2013-09-29 23:50:00,49.0,46.8,23.21,West,261,0.0,0.0,92,0.00,,,0.01,0,Wunderground v.1.15,2013-09-30 03:50:00,